TimeCDT,TemperatureF,Dew PointF,Humidity,Sea Level PressureIn,VisibilityMPH,Wind Direction,Wind SpeedMPH,Gust SpeedMPH,PrecipitationIn,Events,Conditions,WindDirDegrees,DateUTC
12:14 AM,64.4,59.0,83,30.04,10.0,NNW,6.9,-,N/A,,Clear,340,2013-07-10 05:14:00
12:33 AM,64.4,57.2,77,30.05,10.0,North,6.9,-,N/A,,Clear,350,2013-07-10 05:33:00
12:54 AM,62.6,57.2,82,30.05,10.0,NNW,5.8,-,N/A,,Clear,340,2013-07-10 05:54:00
1:14 AM,62.6,57.2,82,30.05,10.0,NNW,5.8,-,N/A,,Clear,340,2013-07-10 06:14:00
1:33 AM,62.6,57.2,82,30.05,10.0,NW,4.6,-,N/A,,Scattered Clouds,310,2013-07-10 06:33:00
1:54 AM,60.8,57.2,88,30.06,10.0,Calm,Calm,-,N/A,,Scattered Clouds,290,2013-07-10 06:54:00
2:14 AM,60.8,55.4,82,30.06,10.0,NW,5.8,-,N/A,,Clear,310,2013-07-10 07:14:00
2:34 AM,60.8,55.4,82,30.07,10.0,NNW,5.8,-,N/A,,Clear,330,2013-07-10 07:34:00
2:54 AM,60.8,55.4,82,30.07,10.0,NW,5.8,-,N/A,,Clear,320,2013-07-10 07:54:00
3:11 AM,60.8,55.4,82,30.07,10.0,NNW,8.1,-,N/A,,Clear,340,2013-07-10 08:11:00
3:34 AM,60.8,55.4,82,30.08,10.0,NW,6.9,-,N/A,,Clear,320,2013-07-10 08:34:00
3:54 AM,60.8,55.4,82,30.08,10.0,NNW,6.9,-,N/A,,Clear,340,2013-07-10 08:54:00
4:13 AM,60.8,55.4,82,30.09,10.0,NW,5.8,-,N/A,,Clear,320,2013-07-10 09:13:00
4:34 AM,59.0,55.4,88,30.09,10.0,NW,5.8,-,N/A,,Clear,310,2013-07-10 09:34:00
4:53 AM,57.2,55.4,94,30.09,10.0,NW,5.8,-,N/A,,Clear,310,2013-07-10 09:53:00
5:14 AM,57.2,55.4,94,30.09,10.0,NNW,5.8,-,N/A,,Clear,330,2013-07-10 10:14:00
5:25 AM,57.2,53.6,88,30.09,10.0,NNW,5.8,-,N/A,,Clear,330,2013-07-10 10:25:00
5:53 AM,55.4,53.6,94,30.10,7.0,West,5.8,-,N/A,,Clear,280,2013-07-10 10:53:00
6:14 AM,55.4,53.6,94,30.11,7.0,WNW,5.8,-,N/A,,Clear,290,2013-07-10 11:14:00
6:34 AM,57.2,53.6,88,30.11,5.0,West,5.8,-,N/A,,Clear,280,2013-07-10 11:34:00
6:53 AM,57.2,53.6,88,30.12,4.0,West,5.8,-,N/A,,Clear,270,2013-07-10 11:53:00
7:14 AM,57.2,55.4,94,30.12,7.0,West,4.6,-,N/A,,Clear,280,2013-07-10 12:14:00
7:34 AM,59.0,55.4,88,30.12,10.0,WNW,6.9,-,N/A,,Clear,290,2013-07-10 12:34:00
7:53 AM,60.8,55.4,82,30.12,10.0,NW,6.9,-,N/A,,Clear,320,2013-07-10 12:53:00
8:14 AM,62.6,55.4,77,30.12,10.0,NW,4.6,-,N/A,,Clear,310,2013-07-10 13:14:00
8:34 AM,62.6,57.2,82,30.12,10.0,NW,5.8,-,N/A,,Clear,310,2013-07-10 13:34:00
8:53 AM,64.4,57.2,77,30.13,10.0,WNW,5.8,-,N/A,,Clear,290,2013-07-10 13:53:00
9:14 AM,66.2,57.2,73,30.13,10.0,West,4.6,-,N/A,,Clear,280,2013-07-10 14:14:00
9:34 AM,66.2,55.4,68,30.13,10.0,NW,5.8,-,N/A,,Clear,310,2013-07-10 14:34:00
9:53 AM,66.2,55.4,68,30.12,10.0,NW,5.8,-,N/A,,Clear,310,2013-07-10 14:53:00
10:14 AM,69.8,55.4,60,30.12,10.0,North,5.8,-,N/A,,Clear,360,2013-07-10 15:14:00
10:33 AM,69.8,55.4,60,30.12,10.0,North,8.1,-,N/A,,Clear,360,2013-07-10 15:33:00
10:53 AM,69.8,55.4,60,30.12,10.0,NNW,9.2,-,N/A,,Clear,330,2013-07-10 15:53:00
11:14 AM,71.6,55.4,57,30.12,10.0,North,5.8,-,N/A,,Clear,350,2013-07-10 16:14:00
11:34 AM,71.6,55.4,57,30.12,10.0,NNW,9.2,-,N/A,,Clear,330,2013-07-10 16:34:00
11:53 AM,71.6,53.6,53,30.12,10.0,NNW,5.8,-,N/A,,Clear,340,2013-07-10 16:53:00
12:14 PM,73.4,53.6,50,30.12,10.0,NNW,4.6,-,N/A,,Clear,340,2013-07-10 17:14:00
12:34 PM,73.4,53.6,50,30.11,10.0,NW,6.9,-,N/A,,Clear,310,2013-07-10 17:34:00
12:53 PM,73.4,55.4,53,30.10,10.0,NNW,8.1,-,N/A,,Clear,330,2013-07-10 17:53:00
1:14 PM,73.4,53.6,50,30.10,10.0,NNW,6.9,-,N/A,,Clear,330,2013-07-10 18:14:00
1:34 PM,73.4,53.6,50,30.10,10.0,NNW,5.8,-,N/A,,Clear,340,2013-07-10 18:34:00
1:53 PM,73.4,53.6,50,30.10,10.0,NW,4.6,-,N/A,,Clear,310,2013-07-10 18:53:00
2:14 PM,75.2,53.6,47,30.09,10.0,NW,6.9,-,N/A,,Clear,310,2013-07-10 19:14:00
2:33 PM,75.2,53.6,47,30.08,10.0,NNW,6.9,-,N/A,,Clear,340,2013-07-10 19:33:00
2:54 PM,75.2,53.6,47,30.08,10.0,NW,4.6,-,N/A,,Clear,310,2013-07-10 19:54:00
3:14 PM,75.2,51.8,44,30.08,10.0,West,3.5,-,N/A,,Clear,260,2013-07-10 20:14:00
3:33 PM,75.2,53.6,47,30.08,10.0,Calm,Calm,-,N/A,,Clear,0,2013-07-10 20:33:00
3:54 PM,75.2,53.6,47,30.07,10.0,Calm,Calm,-,N/A,,Clear,0,2013-07-10 20:54:00
4:13 PM,77.0,53.6,44,30.07,10.0,NW,5.8,-,N/A,,Clear,310,2013-07-10 21:13:00
4:34 PM,77.0,51.8,41,30.06,10.0,Calm,Calm,-,N/A,,Clear,0,2013-07-10 21:34:00
4:54 PM,77.0,51.8,41,30.05,10.0,Calm,Calm,-,N/A,,Clear,0,2013-07-10 21:54:00
5:13 PM,77.0,51.8,41,30.05,10.0,Calm,Calm,-,N/A,,Clear,0,2013-07-10 22:13:00
5:34 PM,77.0,51.8,41,30.05,10.0,Calm,Calm,-,N/A,,Clear,0,2013-07-10 22:34:00
5:54 PM,77.0,55.4,47,30.04,10.0,Calm,Calm,-,N/A,,Clear,0,2013-07-10 22:54:00
6:13 PM,75.2,55.4,50,30.03,10.0,Calm,Calm,-,N/A,,Clear,0,2013-07-10 23:13:00
6:33 PM,75.2,53.6,47,30.03,10.0,Calm,Calm,-,N/A,,Clear,0,2013-07-10 23:33:00
6:54 PM,75.2,53.6,47,30.04,10.0,Calm,Calm,-,N/A,,Clear,0,2013-07-10 23:54:00
7:13 PM,75.2,57.2,53,30.03,10.0,Calm,Calm,-,N/A,,Clear,0,2013-07-11 00:13:00
7:33 PM,75.2,57.2,53,30.03,10.0,Calm,Calm,-,N/A,,Clear,0,2013-07-11 00:33:00
7:54 PM,73.4,57.2,57,30.03,10.0,ESE,3.5,-,N/A,,Clear,110,2013-07-11 00:54:00
8:13 PM,73.4,57.2,57,30.03,10.0,Calm,Calm,-,N/A,,Clear,0,2013-07-11 01:13:00
8:33 PM,71.6,57.2,60,30.03,7.0,Calm,Calm,-,N/A,,Clear,0,2013-07-11 01:33:00
8:54 PM,69.8,59.0,68,30.03,10.0,East,5.8,-,N/A,,Clear,100,2013-07-11 01:54:00
9:13 PM,68.0,57.2,68,30.04,10.0,East,4.6,-,N/A,,Clear,90,2013-07-11 02:13:00
9:33 PM,66.2,57.2,73,30.05,10.0,East,4.6,-,N/A,,Clear,100,2013-07-11 02:33:00
9:54 PM,66.2,57.2,73,30.05,10.0,East,5.8,-,N/A,,Clear,100,2013-07-11 02:54:00
10:13 PM,64.4,57.2,77,30.06,10.0,East,4.6,-,N/A,,Clear,100,2013-07-11 03:13:00
10:33 PM,64.4,57.2,77,30.06,10.0,ESE,4.6,-,N/A,,Clear,120,2013-07-11 03:33:00
10:54 PM,64.4,57.2,77,30.06,10.0,Calm,Calm,-,N/A,,Clear,0,2013-07-11 03:54:00
11:13 PM,66.2,57.2,73,30.06,10.0,Calm,Calm,-,N/A,,Clear,0,2013-07-11 04:13:00
11:33 PM,64.4,57.2,77,30.06,10.0,Calm,Calm,-,N/A,,Clear,0,2013-07-11 04:33:00
11:54 PM,64.4,57.2,77,30.06,10.0,Calm,Calm,-,N/A,,Clear,0,2013-07-11 04:54:00